Regional Weather Roundup
Issued by NWS

Home | Current Version | Previous Version | Text Only | Print | Product List | Glossary Off
Versions: 1 2 3 4 5 6 7 8 9 10 11 12 13 14 15 16 17 18 19 20 21 22 23 24 25 26 27 28 29 30 31 32 33 34 35 36 37 38 39 40 41 42 43 44 45 46 47 48 49 50

638
ASUS45 KBOU 230407
RWRCO

WEATHER ROUNDUP FOR COLORADO
NATIONAL WEATHER SERVICE DENVER/BOULDER CO
900 PM MST WED FEB 22 2017

NOTE: "FAIR" INDICATES FEW OR NO CLOUDS BELOW 12000 FEET WITH NO
SIGNIFICANT WEATHER AND/OR OBSTRUCTIONS TO VISIBILITY.

COZ001>005-013-030-031-230500-
...NORTHWEST COLORADO...

CITY           SKY/WX    TMP DP  RH WIND       PRES   REMARKS
CRAIG          MOCLDY    31  26  82 CALM      29.65F
HAYDEN         FAIR      30  25  80 NW5       29.64F WCI  25
MEEKER         MOCLDY    32  28  85 W9        29.62F WCI  24
MOUNT WERNER   NOT AVBL
STEAMBOAT SPGS FAIR      29  28  95 CALM      29.65F
WALDEN         NOT AVBL
$$

COZ006>008-011-230500-
...WEST CENTRAL VALLEYS...

CITY           SKY/WX    TMP DP  RH WIND       PRES   REMARKS
GRAND JUNCTION FAIR      45  21  38 SE9       29.56F
MONTROSE       FAIR      51  23  33 S12       29.66F
EAGLE          CLEAR     46  19  34 CALM      29.65F
RIFLE          FAIR      54  14  20 S22G30    29.57F
DELTA          FAIR      47  21  35 NE6       29.63S
NUCLA          FAIR      50  16  25 S16       29.70S
$$

COZ017>023-064>068-230500-
...SOUTHWEST COLORADO...

CITY           SKY/WX    TMP DP  RH WIND       PRES   REMARKS
DURANGO        FAIR      46  16  30 S10       29.80S
CORTEZ         FAIR      45  20  36 S14       29.74F
PAGOSA SPRINGS FAIR      45  15  30 SW9       29.84S
TELLURIDE      FAIR      39  14  35 SW10G24   29.80S
WOLF CREEK PAS CLOUDY    23  14  68 S36G52    29.88F HAZE    WCI   4
$$

COZ009-010-012-014-032>034-037-058>063-230500-
...CENTRAL COLORADO...

CITY           SKY/WX    TMP DP  RH WIND       PRES   REMARKS
ASPEN          CLOUDY    42  19  39 SW5       29.67F
BUENA VISTA    FAIR      37  17  43 E3        29.74F
COPPER MTN     CLOUDY    28  10  47 S17G25    29.82S WCI  16
BERTHOUD PASS  MOCLDY    14   5  67 SE16G28   29.81F WCI  -2
COTTONWOOD PAS FAIR      39  12  33 SE8G23    29.79F
GUNNISON       FAIR      34  23  64 CALM      29.73F
KREMMLING      FAIR      34  30  86 CALM      29.68F
LEADVILLE      MOCLDY    32   9  38 S10       29.75F WCI  24
MONARCH PASS   CLOUDY    27  16  63 SW30G43   29.93S WCI  10
SALIDA         FAIR      46  21  36 S7        29.82S
SUNLIGHT       NOT AVBL
WILKERSON PASS MOCLDY    28  12  50 SW13G20   29.86F WCI  18
$$

COZ069>075-230500-
...SAN LUIS VALLEY/SANGRE DE CRISTO MOUNTAINS...

CITY           SKY/WX    TMP DP  RH WIND       PRES   REMARKS
ALAMOSA        FAIR      41  27  57 SW24G38   29.82F
LA VETA PASS   MOCLDY    32  21  64 NE20G40   29.88R WCI  20
SAGUACHE       FAIR      39  23  52 W3        29.79S
$$

COZ035-036-038>040-230500-
...NORTHERN COLORADO FRONT RANGE...

CITY           SKY/WX    TMP DP  RH WIND       PRES   REMARKS
DENVER INTL AP FAIR      33  18  53 N8        29.79R WCI  26
DMNS CITY PARK   N/A     40  18  40 N6        29.79S
AURORA         PTCLDY    35  20  53 N8        29.80R WCI  29
FRONT RANGE AP MOCLDY    36  18  48 N8        29.79R
ERIE MUNI ARPT FAIR      39  27  61 N8        29.79S
BOULDER MUN AP MOCLDY    39  28  65 N6        29.79S
CENTENNIAL     FAIR      40  19  43 N8        29.80R
BROOMFIELD     MOCLDY    41  25  52 N10       29.79S
FORT COLLINS   FAIR      38  26  62 N12       29.80R
LONGMONT       MOCLDY    41  28  60 NE7       29.81F
$$

COZ041-046-047-076>085-087-088-230500-
...PIKES PEAK/PALMER DIVIDE AND SOUTHERN FOOTHILLS...

CITY           SKY/WX    TMP DP  RH WIND       PRES   REMARKS
COLO. SPRINGS  FAIR      46  18  32 N18G25    29.73R
A. F. ACADEMY  FAIR      41  17  37 N23G29    29.75R
SCHRIEVER AFB  FAIR      42  16  34 NW9       29.74R
ELLICOTT       FAIR     N/A N/A N/A NW12      29.71R
FALCON         FAIR      40  17  40 N16G25    29.76R
FORT CARSON    FAIR      48  15  26 NW10      29.71R
LIMON          FAIR      45  19  35 VRB7      29.72R
MONUMENT HILL  FAIR      32  18  55 NW7       29.80R WCI  26
TRINIDAD       FAIR      46  20  35 S10       29.77F
$$

COZ042>045-048>051-090-091-230500-
...NORTHEAST COLORADO...

CITY           SKY/WX    TMP DP  RH WIND       PRES   REMARKS
GREELEY ARPT   FAIR      37  25  61 N6        29.80R
AKRON          FAIR      36  15  42 NE13      29.74S
BURLINGTON     FAIR      44  21  40 E14       29.70F
WRAY           NOT AVBL
STERLING       FAIR      36  18  48 N6        29.75S
HOLYOKE        FAIR      36  21  55 N9        29.75F
FORT MORGAN    FAIR      36  17  45 N14       29.76R
$$

COZ086-089-092>099-230500-
...SOUTHEAST COLORADO...

CITY           SKY/WX    TMP DP  RH WIND       PRES   REMARKS
PUEBLO         FAIR      57  25  29 SW10      29.66S
LA JUNTA       FAIR      58  17  20 SW16      29.65F
LAMAR          FAIR      52  23  32 VRB3      29.66S
SPRINGFIELD      N/A     54  19  25 W9        29.71F
$$




USA.gov is the U.S. government's official web portal to all federal, state and local government web resources and services.